Regional Weather Roundup
Issued by NWS

Home | Current Version | Previous Version | Text Only | Print | Product List | Glossary On
Versions: 1 2 3 4 5 6 7 8 9 10 11 12 13 14 15 16 17 18 19 20 21 22 23 24 25 26 27 28 29 30 31 32 33 34 35 36 37 38 39 40 41 42 43 44 45 46 47 48 49 50
000
ASUS46 KPQR 301010
RWROR

OREGON REGIONAL WEATHER ROUNDUP
NATIONAL WEATHER SERVICE PORTLAND OR
300 AM PDT MON MAR 30 2015

NOTE: "FAIR" INDICATES FEW OR NO CLOUDS BELOW 12,000 FEET WITH
NO SIGNIFICANT WEATHER AND/OR OBSTRUCTIONS TO VISIBILITY.

ORZ001>013-301100-
NORTHWEST OREGON


CITY           SKY/WX    TMP DP  RH WIND       PRES   REMARKS
ASTORIA        CLOUDY    53  48  83 S3        30.13F
NEWPORT        CLOUDY    50  48  93 CALM      30.19F
PORTLAND       PTCLDY    48  43  82 E3        30.15S
VANCOUVER WA   CLEAR     45  41  86 CALM      30.14F
SCAPPOOSE      CLEAR     44  42  93 NW5       30.14F
HILLSBORO      CLEAR     45  42  89 CALM      30.14S
AURORA         CLEAR     45  42  89 CALM      30.15F
MCMINNVILLE    PTCLDY    46  44  93 SW5       30.15F
SALEM          PTCLDY    46  41  82 S3        30.14F
CORVALLIS      PTCLDY    48  45  87 NW9       30.16S
EUGENE         CLEAR     45  41  86 S5        30.16S
$$

ORZ021-028-301100-
SOUTHWEST OREGON


CITY           SKY/WX    TMP DP  RH WIND       PRES   REMARKS
NORTH BEND     CLOUDY    52  50  93 NE3       30.19S
BROOKINGS      CLOUDY    50  50 100 CALM      30.15F FOG
ROSEBURG       MOCLDY    48  42  80 CALM      30.16S
SEXTON SUMMIT  CLOUDY    49  37  63 S8        30.15F
MEDFORD        PTCLDY    50  41  71 CALM      30.14S
$$

ORZ014>016-041-301100-
COLUMBIA GORGE


CITY           SKY/WX    TMP DP  RH WIND       PRES   REMARKS
TROUTDALE      CLEAR     44  40  85 E3        30.14S
THE DALLES     PTCLDY    42  37  82 SE3       30.14R
$$

ORZ029>031-041-044-049-050-061>064-502-503-505>511-301100-
EASTERN OREGON


CITY           SKY/WX    TMP DP  RH WIND       PRES   REMARKS
REDMOND        PTCLDY    37  31  78 S6        30.13F WCI  32
BEND           PTCLDY    37  32  81 CALM      30.13F
PRINEVILLE     PTCLDY    34  30  86 CALM      30.14S
KLAMATH FALLS  CLEAR     34  31  88 CALM      30.17F
LAKEVIEW       CLEAR     30  25  80 CALM      30.19F
HERMISTON      CLEAR     37  34  89 SE3       30.11F
PENDLETON      CLEAR     48  40  73 SE10      30.11F
JOHN DAY       CLEAR     44  33  67 E8        30.16S
MEACHAM        CLEAR     30  28  92 CALM      30.15F
LA GRANDE      CLEAR     39  28  65 NW3       30.14S
BAKER CITY     CLEAR     35  30  82 SW5       30.17S WCI  31
BURNS          CLEAR     33  26  75 CALM      30.17F
ROME             N/A     35  13  40 S3        30.16S
ONTARIO        CLEAR     38  31  76 SW3       30.17F
$$


USA.gov is the U.S. government's official web portal to all federal, state and local government web resources and services.